Powrót do katalogu

STARLINK-34601

AktywnyŁącznośćVLEO
NORAD 65084·PAYLOAD·🇺🇸 United States

Wystrzelony Aug 4, 2025 z Cape Canaveral Space Force Station

Loading…

Następne Przeloty (najbliższe 24 godziny)

TLE

ŚwieżeSource: CelesTrak SupGP

Epoka: Sep 15, 2026, 04:03 UTC

1 65084C 25167G   26258.16923611 -.00053133  00000+0 -15700-2 0  2585
2 65084  53.1575 218.8308 0001461  93.1364  85.1076 15.34413294    13

Śledź STARLINK-34601 w czasie rzeczywistym z AllMySat

Download on the App Store